| time (UTC) | temp F | wind direction | speed knots | gust knots | rain 1hr in | rain 24hr in | rain mn in | humidity % | barometer mb |
| 20260906070020 | 0 | 42 | 1.7 | 7.8 | 0.00 | 0.00 | 0.00 | 96 | |
| 20260906065520 | 0 | 50 | 1.7 | 4.3 | 0.00 | 0.00 | 0.00 | 96 | |
| 20260906065020 | 0 | 59 | 1.7 | 5.2 | 0.00 | 0.00 | 0.00 | 96 | |
| 20260906064519 | 0 | 79 | 2.6 | 9.6 | 0.00 | 0.00 | 0.00 | 96 | |
| 20260906064021 | 0 | 35 | 1.7 | 5.2 | 0.00 | 0.00 | 0.00 | 96 | |
| 20260906063535 | 0 | 12 | 0.9 | 1.7 | 0.00 | 0.00 | 0.00 | 96 | |
| 20260906063019 | 0 | 6 | 0.9 | 2.6 | 0.00 | 0.00 | 0.00 | 96 | |
| 20260906062520 | 0 | 33 | 0.9 | 1.7 | 0.00 | 0.00 | 0.00 | 96 | |
| 20260906062020 | 0 | 36 | 0.9 | 1.7 | 0.04 | 0.00 | 0.00 | 96 | |
| 20260906061520 | 0 | 13 | 0.9 | 2.6 | 0.04 | 0.00 | 0.00 | 96 | |
| 20260906061020 | 0 | 13 | 0.9 | 2.6 | 0.04 | 0.00 | 0.00 | 96 | |
| 20260906060523 | 0 | 26 | 1.7 | 5.2 | 0.01 | 0.00 | 0.00 | 96 | |
| 20260906060020 | 0 | 40 | 1.7 | 4.3 | 0.00 | 0.00 | 0.00 | 96 | |
| 20260906055520 | 0 | 107 | 1.7 | 4.3 | 0.00 | 0.00 | 0.00 | 96 | |
| 20260906055017 | 0 | 109 | 1.7 | 6.1 | 0.00 | 0.00 | 0.00 | 96 | |
| 20260906054521 | 0 | 92 | 1.7 | 4.3 | 0.00 | 0.00 | 0.00 | 96 | |
| 20260906054020 | 0 | 97 | 2.6 | 6.1 | 0.00 | 0.00 | 0.00 | 96 | |
| 20260906053521 | 0 | 28 | 1.7 | 5.2 | 0.00 | 0.00 | 0.00 | 96 | |
| 20260906053017 | 0 | 17 | 1.7 | 3.5 | 0.00 | 0.00 | 0.00 | 96 | |
| 20260906052517 | 0 | 11 | 0.0 | 1.7 | 0.00 | 0.00 | 0.00 | 96 | |
| 20260906052017 | 0 | 20 | 0.9 | 1.7 | 0.00 | 0.00 | 0.00 | 96 | |
| 20260906051518 | 0 | 0.0 | 0.0 | 0.00 | 0.00 | 0.00 | 96 | ||
| 20260906051017 | 0 | 0.0 | 0.0 | 0.00 | 0.00 | 0.00 | 96 | ||
| 20260906050519 | 0 | 0.0 | 0.0 | 0.00 | 0.00 | 0.00 | 96 | ||
| 20260906050018 | 0 | 0.0 | 0.0 | 0.00 | 0.00 | 0.00 | 96 | ||
| 20260906045517 | 0 | 0.0 | 0.0 | 0.00 | 0.00 | 0.00 | 96 | ||
| 20260906045020 | 0 | 23 | 0.9 | 1.7 | 0.00 | 0.00 | 0.00 | 96 | |
| 20260906044518 | 0 | 358 | 0.9 | 1.7 | 0.00 | 0.00 | 0.00 | 96 | |
| 20260906044018 | 0 | 4 | 0.0 | 1.7 | 0.00 | 0.00 | 0.00 | 96 | |
| 20260906043517 | 0 | 0.0 | 0.0 | 0.00 | 0.00 | 0.00 | 96 | ||
| 20260906043017 | 0 | 0.0 | 0.0 | 0.00 | 0.00 | 0.00 | 96 | ||
| 20260906042518 | 0 | 0.0 | 0.0 | 0.00 | 0.00 | 0.00 | 96 | ||
| 20260906042018 | 0 | 0.0 | 0.0 | 0.00 | 0.00 | 0.00 | 96 | ||
| 20260906041518 | 0 | 4 | 0.0 | 1.7 | 0.00 | 0.00 | 0.00 | 96 | |
| 20260906041018 | 0 | 3 | 0.0 | 1.7 | 0.00 | 0.00 | 0.00 | 96 | |
| 20260906040534 | 0 | 11 | 0.0 | 1.7 | 0.00 | 0.00 | 0.00 | 96 | |
| 20260906040017 | 0 | 8 | 0.9 | 1.7 | 0.00 | 0.00 | 0.00 | 96 | |
| 20260906035518 | 0 | 10 | 0.9 | 1.7 | 0.00 | 0.00 | 0.00 | 96 | |
| 20260906035022 | 0 | 0.0 | 0.0 | 0.00 | 0.00 | 0.00 | 96 | ||
| 20260906034522 | 0 | 0.0 | 0.0 | 0.00 | 0.00 | 0.00 | 96 | ||
| 20260906034022 | 0 | 0.0 | 0.0 | 0.00 | 0.00 | 0.00 | 96 | ||
| 20260906033519 | 0 | 0.0 | 0.0 | 0.00 | 0.00 | 0.00 | 96 | ||
| 20260906033018 | 0 | 16 | 0.9 | 1.7 | 0.00 | 0.00 | 0.00 | 96 | |
| 20260906032519 | 0 | 20 | 0.9 | 1.7 | 0.00 | 0.00 | 0.00 | 96 | |
| 20260906032018 | 0 | 0.0 | 0.0 | 0.00 | 0.00 | 0.00 | 96 | ||
| 20260906031519 | 0 | 0.0 | 0.0 | 0.00 | 0.00 | 0.00 | 96 | ||
| 20260906031018 | 0 | 0.0 | 0.0 | 0.00 | 0.00 | 0.00 | 96 | ||
| 20260906030519 | 0 | 0.0 | 0.0 | 0.00 | 0.00 | 0.00 | 96 | ||
| 20260906030019 | 0 | 0.0 | 0.0 | 0.00 | 0.00 | 0.00 | 96 | ||
| 20260906025518 | 0 | 140 | 0.0 | 0.9 | 0.00 | 0.00 | 0.00 | 96 | |
| 20260906025018 | 0 | 0.0 | 0.0 | 0.00 | 0.00 | 0.00 | 96 | ||
| 20260906024524 | 0 | 0.0 | 0.0 | 0.00 | 0.00 | 0.00 | 96 | ||
| 20260906024023 | 0 | 13 | 0.0 | 1.7 | 0.00 | 0.00 | 0.00 | 96 | |
| 20260906023518 | 0 | 0.0 | 0.0 | 0.00 | 0.00 | 0.00 | 96 | ||
| 20260906023039 | 0 | 0.0 | 0.0 | 0.00 | 0.00 | 0.00 | 96 | ||
| 20260906022523 | 0 | 0.0 | 0.0 | 0.00 | 0.00 | 0.00 | 96 | ||
| 20260906022019 | 0 | 0.0 | 0.0 | 0.00 | 0.00 | 0.00 | 96 | ||
| 20260906021519 | 0 | 0.0 | 0.0 | 0.00 | 0.00 | 0.00 | 96 | ||
| 20260906021020 | 0 | 0.0 | 0.0 | 0.00 | 0.00 | 0.00 | 96 | ||
| 20260906020519 | 0 | 0.0 | 0.0 | 0.00 | 0.00 | 0.00 | 96 | ||
| 20260906020018 | 0 | 0.0 | 0.0 | 0.00 | 0.00 | 0.00 | 96 | ||
| 20260906015519 | 0 | 95 | 0.0 | 0.9 | 0.00 | 0.00 | 0.00 | 96 | |
| 20260906015020 | 0 | 0.0 | 0.0 | 0.00 | 0.00 | 0.00 | 96 | ||
| 20260906014520 | 0 | 0.0 | 0.0 | 0.00 | 0.00 | 0.00 | 96 | ||
| 20260906014019 | 0 | 0.0 | 0.0 | 0.00 | 0.00 | 0.00 | 96 | ||
| 20260906013521 | 0 | 0.0 | 0.0 | 0.00 | 0.00 | 0.00 | 96 | ||
| 20260906013019 | 0 | 15 | 0.9 | 1.7 | 0.00 | 0.00 | 0.00 | 96 | |
| 20260906012520 | 0 | 35 | 1.7 | 1.7 | 0.00 | 0.00 | 0.00 | 96 | |
| 20260906012021 | 0 | 29 | 0.9 | 1.7 | 0.00 | 0.00 | 0.00 | 96 | |
| 20260906011521 | 0 | 0.0 | 0.0 | 0.00 | 0.00 | 0.00 | 96 | ||
| 20260906011021 | 0 | 11 | 1.7 | 1.7 | 0.00 | 0.00 | 0.00 | 96 | |
| 20260906010520 | 0 | 8 | 1.7 | 2.6 | 0.00 | 0.00 | 0.00 | 96 | |
| 20260906010019 | 0 | 6 | 0.9 | 1.7 | 0.00 | 0.00 | 0.00 | 96 | |
| 20260906005520 | 0 | 21 | 0.0 | 0.9 | 0.00 | 0.00 | 0.00 | 96 | |
| 20260906005020 | 0 | 24 | 0.9 | 1.7 | 0.00 | 0.00 | 0.00 | 96 | |
| 20260906004519 | 0 | 17 | 0.9 | 2.6 | 0.00 | 0.00 | 0.00 | 96 | |
| 20260906004017 | 0 | 10 | 0.9 | 2.6 | 0.00 | 0.00 | 0.00 | 96 | |
| 20260906003521 | 0 | 0.0 | 0.0 | 0.00 | 0.00 | 0.00 | 96 | ||
| 20260906003020 | 0 | 360 | 0.0 | 0.0 | 0.00 | 0.00 | 0.00 | 96 | |
| 20260906002520 | 0 | 357 | 0.0 | 1.7 | 0.00 | 0.00 | 0.00 | 96 | |
| 20260906002020 | 0 | 358 | 0.0 | 1.7 | 0.00 | 0.00 | 0.00 | 96 | |
| 20260906001520 | 0 | 34 | 0.9 | 1.7 | 0.00 | 0.00 | 0.00 | 96 | |
| 20260906001021 | 0 | 44 | 0.0 | 0.9 | 0.00 | 0.00 | 0.00 | 96 | |
| 20260906000520 | 0 | 4 | 0.0 | 0.9 | 0.00 | 0.00 | 0.00 | 96 | |
| 20260906000020 | 0 | 0.0 | 0.0 | 0.00 | 0.00 | 0.00 | 96 | ||
| 20260905235524 | 0 | 0.0 | 0.0 | 0.00 | 0.00 | 0.00 | 96 | ||
| 20260905235021 | 0 | 5 | 0.9 | 1.7 | 0.00 | 0.00 | 0.00 | 96 | |
| 20260905234520 | 0 | 16 | 0.9 | 1.7 | 0.09 | 0.00 | 0.00 | 96 | |
| 20260905234020 | 0 | 23 | 0.9 | 1.7 | 0.55 | 0.00 | 0.00 | 96 | |
| 20260905233520 | 0 | 30 | 0.9 | 3.5 | 1.18 | 0.00 | 0.00 | 96 | |
| 20260905233021 | 0 | 68 | 1.7 | 3.5 | 1.67 | 0.00 | 0.00 | 96 | |
| 20260905232521 | 0 | 106 | 2.6 | 6.1 | 1.38 | 0.00 | 0.00 | 96 | |
| 20260905232020 | 0 | 79 | 3.5 | 7.0 | 0.82 | 0.00 | 0.00 | 96 | |
| 20260905231521 | 0 | 349 | 3.5 | 12.2 | 0.32 | 0.00 | 0.00 | 96 | |
| 20260905231021 | 0 | 340 | 1.7 | 7.0 | 0.16 | 0.00 | 0.00 | 96 | |
| 20260905230521 | 0 | 328 | 1.7 | 4.3 | 0.06 | 0.00 | 0.00 | 96 | |
| 20260905230020 | 0 | 23 | 1.7 | 6.1 | 0.00 | 0.00 | 0.00 | 96 | |
| 20260905225522 | 0 | 57 | 2.6 | 5.2 | 0.00 | 0.00 | 0.00 | 96 | |
| 20260905225022 | 0 | 4 | 0.0 | 3.5 | 0.00 | 0.00 | 0.00 | 96 | |
| 20260905224521 | 0 | 0.0 | 0.0 | 0.00 | 0.00 | 0.00 | 96 | ||
| 20260905224021 | 0 | 0.0 | 0.0 | 0.00 | 0.00 | 0.00 | 96 | ||
| 20260905223522 | 0 | 0.0 | 0.0 | 0.00 | 0.00 | 0.00 | 96 | ||
| 20260905223021 | 0 | 0.0 | 0.0 | 0.00 | 0.00 | 0.00 | 96 | ||
| 20260905222519 | 0 | 0.0 | 0.0 | 0.00 | 0.00 | 0.00 | 96 | ||
| 20260905222019 | 0 | 359 | 0.0 | 1.7 | 0.00 | 0.00 | 0.00 | 96 | |
| 20260905221518 | 0 | 0.0 | 0.0 | 0.00 | 0.00 | 0.00 | 96 | ||
| 20260905221019 | 0 | 18 | 0.0 | 1.7 | 0.00 | 0.00 | 0.00 | 96 | |
| 20260905220519 | 0 | 0.0 | 0.0 | 0.00 | 0.00 | 0.00 | 96 | ||
| 20260905220019 | 0 | 0.0 | 0.0 | 0.00 | 0.00 | 0.00 | 96 | ||
| 20260905215519 | 0 | 305 | 0.9 | 2.6 | 0.00 | 0.00 | 0.00 | 96 | |
| 20260905215019 | 0 | 313 | 0.9 | 3.5 | 0.00 | 0.00 | 0.00 | 96 | |
| 20260905214519 | 0 | 24 | 0.0 | 2.6 | 0.00 | 0.00 | 0.00 | 96 | |
| 20260905214020 | 0 | 18 | 0.0 | 2.6 | 0.00 | 0.00 | 0.00 | 96 | |
| 20260905213521 | 0 | 303 | 0.0 | 1.7 | 0.00 | 0.00 | 0.00 | 96 | |
| 20260905213018 | 0 | 250 | 1.7 | 3.5 | 0.00 | 0.00 | 0.00 | 96 | |
| 20260905212519 | 0 | 298 | 0.9 | 4.3 | 0.00 | 0.00 | 0.00 | 96 | |
| 20260905211519 | 0 | 345 | 0.9 | 2.6 | 0.00 | 0.00 | 0.00 | 96 | |
| 20260905211018 | 0 | 7 | 0.9 | 3.5 | 0.00 | 0.00 | 0.00 | 96 | |
| 20260905210519 | 0 | 29 | 0.9 | 3.5 | 0.00 | 0.00 | 0.00 | 96 | |
| 20260905210020 | 0 | 306 | 0.0 | 2.6 | 0.00 | 0.00 | 0.00 | 96 | |
| 20260905205518 | 0 | 336 | 0.9 | 3.5 | 0.00 | 0.00 | 0.00 | 96 | |
| 20260905205019 | 0 | 330 | 0.9 | 2.6 | 0.00 | 0.00 | 0.00 | 96 | |
| 20260905204519 | 0 | 15 | 0.9 | 4.3 | 0.00 | 0.00 | 0.00 | 96 | |
| 20260905204019 | 0 | 10 | 0.9 | 4.3 | 0.00 | 0.00 | 0.00 | 96 | |
| 20260905203520 | 0 | 320 | 0.9 | 4.3 | 0.00 | 0.00 | 0.00 | 96 | |
| 20260905203018 | 0 | 360 | 1.7 | 4.3 | 0.00 | 0.00 | 0.00 | 96 | |
| 20260905202520 | 0 | 31 | 1.7 | 4.3 | 0.00 | 0.00 | 0.00 | 96 | |
| 20260905202019 | 0 | 335 | 0.9 | 3.5 | 0.00 | 0.00 | 0.00 | 96 | |
| 20260905201519 | 0 | 270 | 1.7 | 6.1 | 0.00 | 0.00 | 0.00 | 96 | |
| 20260905201019 | 0 | 342 | 0.9 | 4.3 | 0.00 | 0.00 | 0.00 | 96 | |
| 20260905200519 | 0 | 275 | 0.9 | 3.5 | 0.00 | 0.00 | 0.00 | 96 | |
| 20260905200019 | 0 | 308 | 0.9 | 3.5 | 0.00 | 0.00 | 0.00 | 96 | |
| 20260905195519 | 0 | 356 | 0.9 | 4.3 | 0.00 | 0.00 | 0.00 | 96 | |
| 20260905195020 | 0 | 272 | 1.7 | 6.1 | 0.00 | 0.00 | 0.00 | 96 | |
| 20260905194519 | 0 | 13 | 1.7 | 4.3 | 0.00 | 0.00 | 0.00 | 96 | |
| 20260905194020 | 0 | 279 | 0.9 | 3.5 | 0.00 | 0.00 | 0.00 | 96 | |
| 20260905193520 | 0 | 34 | 0.9 | 4.3 | 0.00 | 0.00 | 0.00 | 96 | |
| 20260905193020 | 0 | 20 | 0.9 | 4.3 | 0.00 | 0.00 | 0.00 | 96 | |
| 20260905192519 | 0 | 359 | 0.9 | 2.6 | 0.00 | 0.00 | 0.00 | 96 | |
| 20260905192020 | 0 | 315 | 0.9 | 5.2 | 0.00 | 0.00 | 0.00 | 96 | |
| 20260905191519 | 0 | 295 | 0.9 | 2.6 | 0.00 | 0.00 | 0.00 | 96 | |
| 20260905191031 | 0 | 265 | 0.9 | 2.6 | 0.00 | 0.00 | 0.00 | 96 | |
| 20260905190525 | 0 | 288 | 0.9 | 4.3 | 0.00 | 0.00 | 0.00 | 96 | |
| 20260905190020 | 0 | 273 | 0.9 | 3.5 | 0.00 | 0.00 | 0.00 | 96 | |
| 20260905185520 | 0 | 21 | 0.9 | 4.3 | 0.00 | 0.00 | 0.00 | 96 | |
| 20260905185019 | 0 | 148 | 0.9 | 2.6 | 0.00 | 0.00 | 0.00 | 96 | |
| 20260905184520 | 0 | 338 | 0.0 | 2.6 | 0.00 | 0.00 | 0.00 | 96 | |
| 20260905184021 | 0 | 25 | 0.9 | 4.3 | 0.00 | 0.00 | 0.00 | 96 | |
| 20260905183519 | 0 | 266 | 0.9 | 3.5 | 0.00 | 0.00 | 0.00 | 96 | |
| 20260905183020 | 0 | 256 | 2.6 | 4.3 | 0.00 | 0.00 | 0.00 | 96 | |
| 20260905182521 | 0 | 314 | 1.7 | 4.3 | 0.00 | 0.00 | 0.00 | 96 | |
| 20260905182020 | 0 | 288 | 0.9 | 2.6 | 0.00 | 0.00 | 0.00 | 96 | |
| 20260905181520 | 0 | 287 | 0.0 | 2.6 | 0.00 | 0.00 | 0.00 | 96 | |
| 20260905181021 | 0 | 351 | 0.9 | 4.3 | 0.00 | 0.00 | 0.00 | 96 | |
| 20260905180520 | 0 | 167 | 0.9 | 5.2 | 0.00 | 0.00 | 0.00 | 96 | |
| 20260905180020 | 0 | 293 | 0.9 | 2.6 | 0.00 | 0.00 | 0.00 | 96 | |
| 20260905175520 | 0 | 14 | 0.9 | 4.3 | 0.00 | 0.00 | 0.00 | 96 | |
| 20260905175023 | 0 | 325 | 0.9 | 3.5 | 0.17 | 0.00 | 0.00 | 96 | |
| 20260905174517 | 0 | 249 | 1.7 | 4.3 | 0.23 | 0.00 | 0.00 | 96 | |
| 20260905174020 | 0 | 248 | 1.7 | 4.3 | 0.23 | 0.00 | 0.00 | 96 | |
| 20260905173517 | 0 | 180 | 0.9 | 2.6 | 0.05 | 0.00 | 0.00 | 96 | |
| 20260905173018 | 0 | 300 | 0.9 | 4.3 | 0.00 | 0.00 | 0.00 | 96 | |
| 20260905172517 | 0 | 203 | 0.9 | 3.5 | 0.01 | 0.00 | 0.00 | 96 | |
| 20260905172018 | 0 | 317 | 1.7 | 3.5 | 0.01 | 0.00 | 0.00 | 96 | |
| 20260905171518 | 0 | 238 | 1.7 | 5.2 | 0.01 | 0.00 | 0.00 | 96 | |
| 20260905171019 | 0 | 52 | 0.9 | 3.5 | 0.00 | 0.00 | 0.00 | 96 | |
| 20260905170518 | 0 | 299 | 1.7 | 5.2 | 0.00 | 0.00 | 0.00 | 96 | |
| 20260905170017 | 0 | 328 | 0.0 | 2.6 | 0.00 | 0.00 | 0.00 | 96 | |
| 20260905165519 | 0 | 25 | 0.9 | 5.2 | 0.00 | 0.00 | 0.00 | 96 | |
| 20260905165018 | 0 | 12 | 0.0 | 2.6 | 0.00 | 0.00 | 0.00 | 96 | |
| 20260905164518 | 0 | 19 | 0.9 | 2.6 | 0.00 | 0.00 | 0.00 | 96 | |
| 20260905164019 | 0 | 262 | 0.9 | 3.5 | 0.00 | 0.00 | 0.00 | 96 | |
| 20260905163518 | 0 | 318 | 0.0 | 2.6 | 0.00 | 0.00 | 0.00 | 96 | |
| 20260905163018 | 0 | 255 | 0.9 | 3.5 | 0.00 | 0.00 | 0.00 | 96 | |
| 20260905162518 | 0 | 66 | 0.0 | 1.7 | 0.00 | 0.00 | 0.00 | 96 | |
| 20260905162019 | 0 | 128 | 0.9 | 2.6 | 0.00 | 0.00 | 0.00 | 96 | |
| 20260905161519 | 0 | 283 | 0.9 | 2.6 | 0.00 | 0.00 | 0.00 | 96 | |
| 20260905161020 | 0 | 52 | 0.9 | 2.6 | 0.00 | 0.00 | 0.00 | 96 | |
| 20260905160518 | 0 | 23 | 0.0 | 1.7 | 0.00 | 0.00 | 0.00 | 96 | |
| 20260905160019 | 0 | 28 | 0.9 | 2.6 | 0.00 | 0.00 | 0.00 | 96 | |
| 20260905155518 | 0 | 236 | 0.9 | 2.6 | 0.00 | 0.00 | 0.00 | 96 | |
| 20260905155021 | 0 | 292 | 0.9 | 2.6 | 0.00 | 0.00 | 0.00 | 96 | |
| 20260905154519 | 0 | 278 | 1.7 | 4.3 | 0.00 | 0.00 | 0.00 | 96 | |
| 20260905154018 | 0 | 251 | 0.9 | 3.5 | 0.00 | 0.00 | 0.00 | 96 | |
| 20260905153519 | 0 | 241 | 0.9 | 3.5 | 0.00 | 0.00 | 0.00 | 96 | |
| 20260905153020 | 0 | 7 | 0.9 | 2.6 | 0.00 | 0.00 | 0.00 | 96 | |
| 20260905152523 | 0 | 350 | 0.0 | 2.6 | 0.00 | 0.00 | 0.00 | 96 | |
| 20260905152018 | 0 | 345 | 0.9 | 3.5 | 0.00 | 0.00 | 0.00 | 96 | |
| 20260905151519 | 0 | 356 | 0.9 | 3.5 | 0.00 | 0.00 | 0.00 | 96 | |
| 20260905151018 | 0 | 233 | 0.9 | 2.6 | 0.00 | 0.00 | 0.00 | 96 | |
| 20260905150519 | 0 | 360 | 0.9 | 3.5 | 0.00 | 0.00 | 0.00 | 96 | |
| 20260905150019 | 0 | 349 | 0.0 | 1.7 | 0.00 | 0.00 | 0.00 | 96 | |
| 20260905145519 | 0 | 167 | 0.9 | 2.6 | 0.00 | 0.00 | 0.00 | 96 | |
| 20260905145022 | 0 | 328 | 0.0 | 2.6 | 0.00 | 0.00 | 0.00 | 96 | |
| 20260905144519 | 0 | 331 | 0.0 | 2.6 | 0.00 | 0.00 | 0.00 | 96 | |
| 20260905144020 | 0 | 259 | 0.9 | 1.7 | 0.00 | 0.00 | 0.00 | 96 | |
| 20260905143518 | 0 | 171 | 0.9 | 4.3 | 0.00 | 0.00 | 0.00 | 96 | |
| 20260905143019 | 0 | 166 | 0.9 | 3.5 | 0.00 | 0.00 | 0.00 | 96 | |
| 20260905142516 | 0 | 161 | 0.9 | 2.6 | 0.00 | 0.00 | 0.00 | 96 | |
| 20260905142017 | 0 | 169 | 0.9 | 4.3 | 0.00 | 0.00 | 0.00 | 96 | |
| 20260905141517 | 0 | 284 | 0.0 | 1.7 | 0.00 | 0.00 | 0.00 | 96 | |
| 20260905141016 | 0 | 189 | 0.0 | 3.5 | 0.00 | 0.00 | 0.00 | 96 | |
| 20260905140516 | 0 | 170 | 0.0 | 2.6 | 0.00 | 0.00 | 0.00 | 96 | |
| 20260905140017 | 0 | 159 | 0.9 | 3.5 | 0.00 | 0.00 | 0.00 | 96 | |
| 20260905135516 | 0 | 181 | 0.0 | 2.6 | 0.00 | 0.00 | 0.00 | 96 | |
| 20260905135017 | 0 | 163 | 0.0 | 1.7 | 0.00 | 0.00 | 0.00 | 96 | |
| 20260905134517 | 0 | 360 | 0.0 | 0.0 | 0.00 | 0.00 | 0.00 | 96 | |
| 20260905134020 | 0 | 167 | 0.9 | 3.5 | 0.00 | 0.00 | 0.00 | 96 | |
| 20260905133520 | 0 | 167 | 0.9 | 2.6 | 0.00 | 0.00 | 0.00 | 96 | |
| 20260905133020 | 0 | 0.0 | 0.0 | 0.00 | 0.00 | 0.00 | 96 | ||
| 20260905132519 | 0 | 0.0 | 0.0 | 0.00 | 0.00 | 0.00 | 96 | ||
| 20260905132019 | 0 | 0.0 | 0.0 | 0.00 | 0.00 | 0.00 | 96 | ||
| 20260905131520 | 0 | 0.0 | 0.0 | 0.00 | 0.00 | 0.00 | 96 | ||
| 20260905131019 | 0 | 0.0 | 0.0 | 0.00 | 0.00 | 0.00 | 96 | ||
| 20260905130520 | 0 | 172 | 0.0 | 1.7 | 0.00 | 0.00 | 0.00 | 96 | |
| 20260905130021 | 0 | 0.0 | 0.0 | 0.00 | 0.00 | 0.00 | 96 | ||
| 20260905125520 | 0 | 159 | 0.0 | 1.7 | 0.00 | 0.00 | 0.00 | 96 | |
| 20260905125020 | 0 | 0.0 | 0.0 | 0.00 | 0.00 | 0.00 | 96 | ||
| 20260905124520 | 0 | 174 | 0.0 | 1.7 | 0.00 | 0.00 | 0.00 | 96 | |
| 20260905124020 | 0 | 169 | 1.7 | 2.6 | 0.00 | 0.00 | 0.00 | 96 | |
| 20260905123520 | 0 | 163 | 0.0 | 1.7 | 0.00 | 0.00 | 0.00 | 96 | |
| 20260905123023 | 0 | 0.0 | 0.0 | 0.00 | 0.00 | 0.00 | 96 | ||
| 20260905122520 | 0 | 0.0 | 0.0 | 0.00 | 0.00 | 0.00 | 96 | ||
| 20260905122115 | 0 | 0.0 | 0.0 | 0.00 | 0.00 | 0.00 | 96 | ||
| 20260905121520 | 0 | 0.0 | 0.0 | 0.00 | 0.00 | 0.00 | 96 | ||
| 20260905121018 | 0 | 0.0 | 0.0 | 0.00 | 0.00 | 0.00 | 96 | ||
| 20260905120518 | 0 | 0.0 | 0.0 | 0.00 | 0.00 | 0.00 | 96 | ||
| 20260905120018 | 0 | 0.0 | 0.0 | 0.00 | 0.00 | 0.00 | 96 | ||
| 20260905115518 | 0 | 0.0 | 0.0 | 0.00 | 0.00 | 0.00 | 96 | ||
| 20260905115017 | 0 | 0.0 | 0.0 | 0.00 | 0.00 | 0.00 | 96 | ||
| 20260905114520 | 0 | 0.0 | 0.0 | 0.00 | 0.00 | 0.00 | 96 | ||
| 20260905114017 | 0 | 0.0 | 0.0 | 0.00 | 0.00 | 0.00 | 96 | ||
| 20260905113518 | 0 | 0.0 | 0.0 | 0.00 | 0.00 | 0.00 | 96 | ||
| 20260905113018 | 0 | 0.0 | 0.0 | 0.00 | 0.00 | 0.00 | 96 | ||
| 20260905112519 | 0 | 0.0 | 0.0 | 0.00 | 0.00 | 0.00 | 96 | ||
| 20260905112017 | 0 | 0.0 | 0.0 | 0.00 | 0.00 | 0.00 | 96 | ||
| 20260905111517 | 0 | 0.0 | 0.0 | 0.00 | 0.00 | 0.00 | 96 | ||
| 20260905111019 | 0 | 0.0 | 0.0 | 0.00 | 0.00 | 0.00 | 96 | ||
| 20260905110518 | 0 | 0.0 | 0.0 | 0.00 | 0.00 | 0.00 | 96 | ||
| 20260905110018 | 0 | 0.0 | 0.0 | 0.00 | 0.00 | 0.00 | 96 | ||
| 20260905105518 | 0 | 0.0 | 0.0 | 0.00 | 0.00 | 0.00 | 96 | ||
| 20260905105018 | 0 | 14 | 0.0 | 1.7 | 0.00 | 0.00 | 0.00 | 96 | |
| 20260905104518 | 0 | 0.0 | 0.0 | 0.00 | 0.00 | 0.00 | 96 | ||
| 20260905104018 | 0 | 0.0 | 0.0 | 0.00 | 0.00 | 0.00 | 96 | ||
| 20260905103518 | 0 | 0.0 | 0.0 | 0.00 | 0.00 | 0.00 | 96 | ||
| 20260905103019 | 0 | 0.0 | 0.0 | 0.00 | 0.00 | 0.00 | 96 | ||
| 20260905102518 | 0 | 162 | 0.0 | 1.7 | 0.00 | 0.00 | 0.00 | 96 | |
| 20260905102018 | 0 | 167 | 0.0 | 0.9 | 0.00 | 0.00 | 0.00 | 96 | |
| 20260905101708 | 0 | 165 | 0.0 | 0.9 | 0.00 | 0.00 | 0.00 | 96 | |
| 20260905101019 | 0 | 0.0 | 0.0 | 0.00 | 0.00 | 0.00 | 96 | ||
| 20260905100519 | 0 | 0.0 | 0.0 | 0.00 | 0.00 | 0.00 | 96 | ||
| 20260905100018 | 0 | 0.0 | 0.0 | 0.00 | 0.00 | 0.00 | 96 | ||
| 20260905095520 | 0 | 0.0 | 0.0 | 0.00 | 0.00 | 0.00 | 96 | ||
| 20260905095019 | 0 | 0.0 | 0.0 | 0.00 | 0.00 | 0.00 | 96 | ||
| 20260905094519 | 0 | 0.0 | 0.0 | 0.00 | 0.00 | 0.00 | 96 | ||
| 20260905094019 | 0 | 0.0 | 0.0 | 0.00 | 0.00 | 0.00 | 96 | ||
| 20260905093519 | 0 | 0.0 | 0.0 | 0.00 | 0.00 | 0.00 | 96 | ||
| 20260905093019 | 0 | 0.0 | 0.0 | 0.00 | 0.00 | 0.00 | 96 | ||
| 20260905092520 | 0 | 0.0 | 0.0 | 0.00 | 0.00 | 0.00 | 96 | ||
| 20260905092019 | 0 | 0.0 | 0.0 | 0.00 | 0.00 | 0.00 | 96 | ||
| 20260905091519 | 0 | 0.0 | 0.0 | 0.00 | 0.00 | 0.00 | 96 | ||
| 20260905091019 | 0 | 0.0 | 0.0 | 0.00 | 0.00 | 0.00 | 96 | ||
| 20260905090519 | 0 | 0.0 | 0.0 | 0.00 | 0.00 | 0.00 | 96 | ||
| 20260905090016 | 0 | 0.0 | 0.0 | 0.00 | 0.00 | 0.00 | 96 | ||
| 20260905085516 | 0 | 0.0 | 0.0 | 0.00 | 0.00 | 0.00 | 96 | ||
| 20260905085016 | 0 | 0.0 | 0.0 | 0.00 | 0.00 | 0.00 | 96 | ||
| 20260905084516 | 0 | 0.0 | 0.0 | 0.00 | 0.00 | 0.00 | 96 | ||
| 20260905084020 | 0 | 0.0 | 0.0 | 0.00 | 0.00 | 0.00 | 96 | ||
| 20260905083520 | 0 | 0.0 | 0.0 | 0.00 | 0.00 | 0.00 | 96 | ||
| 20260905083019 | 0 | 0.0 | 0.0 | 0.00 | 0.00 | 0.00 | 96 | ||
| 20260905082519 | 0 | 0.0 | 0.0 | 0.00 | 0.00 | 0.00 | 96 | ||
| 20260905082020 | 0 | 0.0 | 0.0 | 0.00 | 0.00 | 0.00 | 96 | ||
| 20260905081520 | 0 | 0.0 | 0.0 | 0.00 | 0.00 | 0.00 | 96 | ||
| 20260905081019 | 0 | 170 | 0.9 | 1.7 | 0.00 | 0.00 | 0.00 | 96 | |
| 20260905080519 | 0 | 170 | 0.9 | 2.6 | 0.00 | 0.00 | 0.00 | 96 | |
| 20260905080020 | 0 | 0.0 | 0.0 | 0.00 | 0.00 | 0.00 | 96 | ||
| 20260905075520 | 0 | 0.0 | 0.0 | 0.00 | 0.00 | 0.00 | 96 | ||
| 20260905075019 | 0 | 0.0 | 0.0 | 0.00 | 0.00 | 0.00 | 96 | ||
| 20260905074520 | 0 | 360 | 0.0 | 0.0 | 0.00 | 0.00 | 0.00 | 96 | |
| 20260905074019 | 0 | 15 | 0.0 | 1.7 | 0.00 | 0.00 | 0.00 | 96 | |
| 20260905073520 | 0 | 0.0 | 0.0 | 0.00 | 0.00 | 0.00 | 96 | ||
| 20260905073020 | 0 | 0.0 | 0.0 | 0.00 | 0.00 | 0.00 | 96 | ||
| 20260905072521 | 0 | 0.0 | 0.0 | 0.00 | 0.00 | 0.00 | 96 | ||
| 20260905072020 | 0 | 0.0 | 0.0 | 0.00 | 0.00 | 0.00 | 96 | ||
| 20260905071521 | 0 | 0.0 | 0.0 | 0.00 | 0.00 | 0.00 | 96 | ||
| 20260905071020 | 0 | 0.0 | 0.0 | 0.00 | 0.00 | 0.00 | 96 | ||
| 20260905070520 | 0 | 0.0 | 0.0 | 0.00 | 0.00 | 0.00 | 96 |